Change the Weather History Date:

Thursday, January 23, 2014

  Actual Average Record
Temperature  
Mean Temperature -2 °F -  
Max Temperature 6 °F 32 °F 55 °F (1981)
Min Temperature -9 °F 9 °F -26 °F (1963)
Degree Days  
Heating Degree Days 66    
Moisture  
Dew Point -12 °F    
Average Humidity 60    
Maximum Humidity 66    
Minimum Humidity 52    
Precipitation  
Precipitation 0.00 in - - ()
Sea Level Pressure  
Sea Level Pressure 30.60 in    
Wind  
Wind Speed 14 mph (WNW)    
Max Wind Speed 20 mph    
Max Gust Speed 26 mph    
Visibility 10 miles    
Events      
Averages and records for this station are not official NWS values.
T = Trace of Precipitation, MM = Missing Value Source: NWS Daily Summary

Daily Weather History Graph

Daily Weather History Graph

Search for Another Location

Airport or City:

Trip Planner

Search our weather history database for the weather conditions in past years. The results will help you decide how hot, cold, wet, or windy it might be!

Date:

Astronomy

Jan. 23, 2014 Rise Set
Actual Time 7:36 AM CST 5:18 PM CST
Civil Twilight 7:05 AM CST 5:49 PM CST
Nautical Twilight 6:31 AM CST 6:23 PM CST
Astronomical Twilight 5:58 AM CST 6:56 PM CST
Moon No Moon Rise 11:03 AM CST (1/23)
Length of Visible Light 10h 43m
Length of Day
9h 42m
Waning Gibbous, 55% of the Moon is Illuminated
Jan 23
Waning Gibbous
Jan 23
Last Quarter
Jan 30
New
Feb 6
First Quarter
Feb 14
Full

Hourly Weather History & Observations

Time (CST) Temp. Windchill Dew Point Humidity Pressure Visibility Wind Dir Wind Speed Gust Speed Precip Events Conditions
12:15 AM -5.8 °F -27.5 °F -14.8 °F 65% 30.48 in 10.0 mi NNW 16.1 mph - N/A   Overcast
12:35 AM -5.8 °F -29.4 °F -14.8 °F 65% 30.48 in 10.0 mi NNW 19.6 mph - N/A   Overcast
12:55 AM -5.8 °F -26.0 °F -14.8 °F 65% 30.49 in 10.0 mi NNW 13.8 mph 23.0 mph N/A   Overcast
1:15 AM -5.8 °F -26.8 °F -14.8 °F 65% 30.49 in 10.0 mi NW 15.0 mph - N/A   Overcast
1:35 AM -5.8 °F -26.0 °F -16.6 °F 60% 30.50 in 10.0 mi NNW 13.8 mph 26.5 mph N/A   Overcast
1:55 AM -5.8 °F -26.0 °F -16.6 °F 60% 30.51 in 10.0 mi NNW 13.8 mph 23.0 mph N/A   Overcast
2:15 AM -5.8 °F -26.0 °F -16.6 °F 60% 30.52 in 10.0 mi NNW 13.8 mph 21.9 mph N/A   Overcast
2:35 AM -5.8 °F -26.8 °F -16.6 °F 60% 30.53 in 10.0 mi NNW 15.0 mph - N/A   Overcast
2:55 AM -5.8 °F -26.8 °F -16.6 °F 60% 30.54 in 10.0 mi NW 15.0 mph - N/A   Overcast
3:15 AM -5.8 °F -28.2 °F -16.6 °F 60% 30.54 in 10.0 mi NNW 17.3 mph - N/A   Overcast
3:35 AM -7.6 °F -29.8 °F -16.6 °F 65% 30.54 in 10.0 mi NW 16.1 mph - N/A   Overcast
3:55 AM -7.6 °F -31.1 °F -16.6 °F 65% 30.55 in 10.0 mi NNW 18.4 mph - N/A   Mostly Cloudy
4:15 AM -7.6 °F -30.5 °F -16.6 °F 65% 30.55 in 10.0 mi NNW 17.3 mph - N/A   Mostly Cloudy
4:35 AM -7.6 °F -29.8 °F -16.6 °F 65% 30.56 in 10.0 mi NW 16.1 mph 23.0 mph N/A   Overcast
4:55 AM -7.6 °F -28.3 °F -16.6 °F 65% 30.58 in 10.0 mi NW 13.8 mph 19.6 mph N/A   Overcast
5:15 AM -7.6 °F -27.5 °F -16.6 °F 65% 30.59 in 10.0 mi NW 12.7 mph - N/A   Overcast
5:35 AM -7.6 °F -27.5 °F -16.6 °F 65% 30.60 in 10.0 mi NW 12.7 mph - N/A   Overcast
5:55 AM -7.6 °F -28.3 °F -16.6 °F 65% 30.61 in 10.0 mi NW 13.8 mph - N/A   Mostly Cloudy
6:15 AM -7.6 °F -27.5 °F -16.6 °F 65% 30.62 in 10.0 mi NW 12.7 mph 20.7 mph N/A   Scattered Clouds
6:35 AM -7.6 °F -27.5 °F -16.6 °F 65% 30.63 in 10.0 mi NW 12.7 mph 19.6 mph N/A   Clear
6:55 AM -7.6 °F -26.6 °F -16.6 °F 65% 30.64 in 10.0 mi NW 11.5 mph - N/A   Partly Cloudy
7:15 AM -9.4 °F -29.8 °F -18.4 °F 65% 30.65 in 10.0 mi NW 12.7 mph - N/A   Partly Cloudy
7:35 AM -9.4 °F -32.1 °F -18.4 °F 65% 30.65 in 10.0 mi NNW 16.1 mph - N/A   Clear
7:55 AM -7.6 °F -28.3 °F -18.4 °F 59% 30.66 in 10.0 mi NNW 13.8 mph 20.7 mph N/A   Clear
8:15 AM -7.6 °F -29.1 °F -18.4 °F 59% 30.66 in 10.0 mi NNW 15.0 mph 21.9 mph N/A   Clear
8:35 AM -7.6 °F -28.3 °F -16.6 °F 65% 30.67 in 10.0 mi NNW 13.8 mph 23.0 mph N/A   Clear
8:55 AM -7.6 °F -29.1 °F -16.6 °F 65% 30.68 in 10.0 mi NNW 15.0 mph 21.9 mph N/A   Clear
9:15 AM -5.8 °F -26.0 °F -16.6 °F 60% 30.69 in 10.0 mi NW 13.8 mph - N/A   Clear
9:35 AM -5.8 °F -26.0 °F -16.6 °F 60% 30.70 in 10.0 mi NW 13.8 mph - N/A   Clear
9:55 AM -4.0 °F -23.7 °F -16.6 °F 55% 30.70 in 10.0 mi NW 13.8 mph - N/A   Clear
10:15 AM -4.0 °F -23.0 °F -14.8 °F 60% 30.71 in 10.0 mi NW 12.7 mph 18.4 mph N/A   Clear
10:35 AM -2.2 °F -18.9 °F -14.8 °F 55% 30.71 in 10.0 mi NW 10.4 mph 17.3 mph N/A   Clear
10:55 AM -2.2 °F -20.7 °F -14.8 °F 55% 30.72 in 10.0 mi NW 12.7 mph - N/A   Clear
11:15 AM -0.4 °F -18.4 °F -13.0 °F 55% 30.72 in 10.0 mi WNW 12.7 mph - N/A   Clear
11:35 AM -0.4 °F -18.4 °F -13.0 °F 55% 30.72 in 10.0 mi WNW 12.7 mph - N/A   Clear
11:55 AM 1.4 °F -13.5 °F -11.2 °F 56% 30.71 in 10.0 mi WNW 9.2 mph 16.1 mph N/A   Clear
12:15 PM 1.4 °F -16.1 °F -11.2 °F 56% 30.70 in 10.0 mi WNW 12.7 mph - N/A   Clear
12:35 PM 3.2 °F -13.9 °F -9.4 °F 56% 30.70 in 10.0 mi NW 12.7 mph - N/A   Scattered Clouds
12:55 PM 3.2 °F -14.6 °F -9.4 °F 56% 30.69 in 10.0 mi WNW 13.8 mph 19.6 mph N/A   Scattered Clouds
1:15 PM 3.2 °F -14.6 °F -9.4 °F 56% 30.68 in 10.0 mi NW 13.8 mph 20.7 mph N/A   Scattered Clouds
1:35 PM 5.0 °F -12.3 °F -7.6 °F 56% 30.67 in 10.0 mi WNW 13.8 mph - N/A   Scattered Clouds
1:55 PM 5.0 °F -11.6 °F -7.6 °F 56% 30.67 in 10.0 mi WNW 12.7 mph 20.7 mph N/A   Partly Cloudy
2:15 PM 5.0 °F -13.6 °F -7.6 °F 56% 30.66 in 10.0 mi NW 16.1 mph - N/A   Clear
2:35 PM 6.8 °F -9.3 °F -7.6 °F 52% 30.66 in 10.0 mi WNW 12.7 mph 20.7 mph N/A   Clear
2:55 PM 6.8 °F -10.0 °F -7.6 °F 52% 30.65 in 10.0 mi WNW 13.8 mph 20.7 mph N/A   Clear
3:15 PM 6.8 °F -10.7 °F -5.8 °F 56% 30.65 in 10.0 mi WNW 15.0 mph - N/A   Partly Cloudy
3:35 PM 6.8 °F -9.3 °F -5.8 °F 56% 30.65 in 10.0 mi NW 12.7 mph 21.9 mph N/A   Partly Cloudy
3:55 PM 6.8 °F -9.3 °F -5.8 °F 56% 30.65 in 10.0 mi NW 12.7 mph - N/A   Clear
4:15 PM 6.8 °F -8.6 °F -5.8 °F 56% 30.65 in 10.0 mi NW 11.5 mph - N/A   Clear
4:35 PM 6.8 °F -8.6 °F -5.8 °F 56% 30.65 in 10.0 mi NW 11.5 mph 17.3 mph N/A   Clear
4:55 PM 6.8 °F -7.8 °F -5.8 °F 56% 30.65 in 10.0 mi NW 10.4 mph 21.9 mph N/A   Clear
5:15 PM 6.8 °F -5.9 °F -7.6 °F 52% 30.64 in 10.0 mi WNW 8.1 mph 13.8 mph N/A   Clear
5:35 PM 6.8 °F -4.8 °F -7.6 °F 52% 30.63 in 10.0 mi West 6.9 mph 12.7 mph N/A   Clear
5:55 PM 5.0 °F -6.9 °F -7.6 °F 56% 30.62 in 10.0 mi West 6.9 mph - N/A   Clear
6:15 PM 5.0 °F -8.1 °F -7.6 °F 56% 30.63 in 10.0 mi West 8.1 mph - N/A   Clear
6:35 PM 5.0 °F -6.9 °F -5.8 °F 61% 30.62 in 10.0 mi West 6.9 mph - N/A   Clear
6:55 PM 5.0 °F -8.1 °F -5.8 °F 61% 30.62 in 10.0 mi West 8.1 mph - N/A   Clear
7:15 PM 3.2 °F -9.1 °F -5.8 °F 66% 30.61 in 10.0 mi WSW 6.9 mph - N/A   Clear
7:35 PM 3.2 °F -7.8 °F -7.6 °F 61% 30.60 in 10.0 mi SW 5.8 mph - N/A   Clear
7:55 PM 1.4 °F -9.9 °F -7.6 °F 66% 30.58 in 10.0 mi WSW 5.8 mph - N/A   Clear
8:35 PM 1.4 °F -11.3 °F -7.6 °F 66% 30.55 in 10.0 mi SW 6.9 mph - N/A   Clear
8:55 PM 1.4 °F -11.3 °F -7.6 °F 66% 30.54 in 10.0 mi SW 6.9 mph - N/A   Clear
9:15 PM 1.4 °F -12.5 °F -7.6 °F 66% 30.52 in 10.0 mi SW 8.1 mph - N/A   Clear
9:55 PM 1.4 °F -11.3 °F -7.6 °F 66% 30.50 in 10.0 mi SW 6.9 mph - N/A   Clear
10:15 PM 3.2 °F -10.3 °F -7.6 °F 61% 30.49 in 10.0 mi SSW 8.1 mph - N/A   Clear
10:35 PM 3.2 °F -13.1 °F -9.4 °F 56% 30.47 in 10.0 mi SSW 11.5 mph - N/A   Clear
10:55 PM 5.0 °F -10.0 °F -9.4 °F 52% 30.46 in 10.0 mi SW 10.4 mph - N/A   Clear
11:15 PM 5.0 °F -10.0 °F -9.4 °F 52% 30.44 in 10.0 mi SW 10.4 mph 18.4 mph N/A   Clear
11:35 PM 5.0 °F -12.3 °F -7.6 °F 56% 30.43 in 10.0 mi SW 13.8 mph - N/A   Clear
11:55 PM 5.0 °F -12.3 °F -7.6 °F 56% 30.40 in 10.0 mi SSW 13.8 mph - N/A   Clear